Location: Newark
(42.4040°N, 21.7420°E)
Time: 08:24:40
(UTC+00:00)

Envisat - Visible Passes

Search period start: 16 December 2019 00:00
Search period end: 26 December 2019 00:00
Orbit: 764 x 766 km, 98.1° (Epoch: 16 December)

Date Brightness Start Highest point End Pass type
(mag) Time Alt. Az. Time Alt. Az. Time Alt. Az.
16 Dec 5.7 04:20:32 10° NE 04:24:22 21° E 04:28:11 10° SE visible
16 Dec 3.7 15:35:31 10° SE 15:39:54 30° ENE 15:44:17 10° N visible
16 Dec 4.7 17:14:15 10° SSW 17:18:49 33° W 17:23:24 10° NNW visible
17 Dec 3.2 05:21:49 10° NNE 05:26:56 81° ESE 05:32:00 10° S visible
17 Dec 3.2 16:36:51 10° S 16:41:55 74° WSW 16:47:01 10° NNW visible
18 Dec 4.7 04:45:22 10° NNE 04:50:03 36° E 04:54:43 10° SSE visible
18 Dec 3.1 16:00:19 10° SE 16:05:12 51° ENE 16:10:08 10° N visible
18 Dec 5.6 17:40:55 10° SW 17:44:31 19° W 17:48:08 10° NW visible
19 Dec 5.9 04:09:44 10° NE 04:12:59 17° E 04:16:11 10° SE visible
19 Dec 4.0 15:24:40 10° ESE 15:28:42 25° ENE 15:32:46 10° NNE visible
19 Dec 4.2 17:02:41 10° S 17:07:28 42° W 17:12:18 10° NNW visible
20 Dec 3.6 05:10:34 10° NNE 05:15:38 64° E 05:20:40 10° S visible
20 Dec 2.9 16:25:33 10° SSE 16:30:38 88° ENE 16:35:45 10° NNW visible
20 Dec 6.2 18:09:14 10° W 18:10:19 11° W 18:11:24 10° WNW visible
21 Dec 5.1 04:34:17 10° NE 04:38:42 29° E 04:43:04 10° SSE visible
21 Dec 3.4 15:49:16 10° SE 15:53:59 41° ENE 15:58:44 10° N visible
21 Dec 5.2 17:29:02 10° SSW 17:33:08 24° W 17:37:15 10° NW visible
22 Dec 6.1 03:59:12 10° ENE 04:01:34 13° E 04:03:55 10° ESE visible
22 Dec 3.8 16:51:12 10° S 16:56:09 53° W 17:01:08 10° NNW visible
23 Dec 4.0 04:59:22 10° NNE 05:04:20 50° E 05:09:15 10° S visible
23 Dec 2.9 16:14:20 10° SSE 16:19:22 70° ENE 16:24:26 10° N visible
23 Dec 6.0 17:56:19 10° WSW 17:58:53 14° W 18:01:29 10° WNW visible
24 Dec 5.5 04:23:18 10° NE 04:27:20 23° E 04:31:20 10° SE visible
24 Dec 3.6 15:38:18 10° SE 15:42:47 33° ENE 15:47:17 10° N visible
24 Dec 4.9 17:17:19 10° SSW 17:21:46 30° W 17:26:15 10° NW visible
25 Dec 3.1 05:24:44 10° NNE 05:29:51 88° ESE 05:34:56 10° SSW visible
25 Dec 3.3 16:39:48 10° S 16:44:51 68° WSW 16:49:55 10° NNW visible
